sat.trackr.live / text

‹ back to catalog

STARLINK-35388

NORAD 66466 · 2025-262L

PAYLOAD ACTIVE UNKNOWN

§ Identity

Operator
Country
US
Launch date
2025-11-15
Launch site
AFETR
Launch vehicle
Mass (kg)
RCS (m²)

Purposes: comms

External: N2YO · Heavens-Above · Gunter

§ Orbital elements

Epoch: 2026-05-25T05:19:59.031264Z

Period
94.27 min
Inclination
42.9987°
Eccentricity
0.0001199
Mean motion
15.27590631 rev/d
Perigee alt
482.2 km
Apogee alt
483.8 km
Semi-major
6,861.2 km
B*
7.7782e-4
RAAN
223.7337°
Arg perigee
283.8203°
Mean anomaly
76.2515°
Rev number
3,061

§ Raw data

STARLINK-353881 66466U 25262L   26145.22221101  .00021210  00000+0  77782-3 0  99932 66466  42.9987 223.7337 0001199 283.8203  76.2515 15.27590631 30617

JSON: /api/v1/satellites/66466 · /tle

For live sub-satellite position, see the globe view (requires WebGL).

§ Visibility from observer

Set your observer location to see the next 7 days of passes ≥ 10°. The values pass through the URL so the page stays shareable.

No JS? Fill the form by hand. The geolocation button needs JavaScript.